Location: Vancouver
(49.2500°N, 123.1330°W)
Time: 15:11:26
(UTC-07:00)

YAOGAN 6 - Visible Passes

Search period start: 16 April 2014 00:00
Search period end: 26 April 2014 00:00
Orbit: 507 x 512 km, 97.3° (Epoch: 16 April)

Date Brightness Start Highest point End Pass type
(mag) Time Alt. Az. Time Alt. Az. Time Alt. Az.
16 Apr 5.6 00:34:38 12° WNW 00:34:38 12° WNW 00:35:14 10° WNW visible
16 Apr 3.7 22:42:46 34° NE 22:42:46 34° NE 22:45:43 10° N visible
17 Apr 5.2 00:17:38 17° WNW 00:17:38 17° WNW 00:19:12 10° NW visible
17 Apr 4.1 22:25:45 24° ENE 22:25:45 24° ENE 22:28:41 10° NNE visible
18 Apr 4.7 00:00:37 25° WNW 00:00:37 25° WNW 00:02:49 10° NNW visible
18 Apr 4.5 22:08:43 17° ENE 22:08:59 17° ENE 22:11:28 10° NNE visible
18 Apr 4.0 23:43:35 37° NW 23:43:35 37° NW 23:46:14 10° NNW visible
19 Apr 4.9 21:51:40 12° ENE 21:52:22 12° ENE 21:53:52 10° NE visible
19 Apr 3.3 23:26:31 53° NW 23:26:31 53° NW 23:29:31 10° NNW visible
20 Apr 3.0 23:09:27 61° NNE 23:09:27 61° NNE 23:12:41 10° N visible
21 Apr 3.2 22:52:21 45° ENE 22:52:21 45° ENE 22:55:45 10° N visible
22 Apr 5.2 00:27:13 15° WNW 00:27:13 15° WNW 00:28:44 10° NW visible
22 Apr 3.7 22:35:14 30° ENE 22:35:23 31° ENE 22:38:41 10° N visible
23 Apr 4.7 00:10:06 22° WNW 00:10:06 22° WNW 00:12:25 10° NW visible
23 Apr 4.2 22:18:07 21° ENE 22:18:37 21° ENE 22:21:29 10° NNE visible
23 Apr 4.1 23:52:58 33° WNW 23:52:58 33° WNW 23:55:50 10° NNW visible
24 Apr 4.7 22:00:57 14° ENE 22:01:52 15° ENE 22:04:02 10° NNE visible
24 Apr 3.3 23:35:49 52° WNW 23:35:49 52° WNW 23:39:05 10° NNW visible
25 Apr 5.1 21:44:29 10° ENE 21:45:09 10° ENE 21:45:50 10° NE visible
25 Apr 2.6 23:18:38 81° NNW 23:18:38 81° NNW 23:22:13 10° NNW visible
